Location: White Mills Observatory
(37.5374°N, 86.0303°W)
Time: 15:03:46
(UTC-04:00)

HST - Visible Passes

Search period start: 17 April 2014 00:00
Search period end: 27 April 2014 00:00
Orbit: 549 x 553 km, 28.5° (Epoch: 16 April)

Date Brightness Start Highest point End Pass type
(mag) Time Alt. Az. Time Alt. Az. Time Alt. Az.
17 Apr 2.4 21:19:31 10° SW 21:22:30 19° S 21:23:59 16° SE visible
18 Apr 2.4 21:12:46 10° SW 21:15:57 21° S 21:18:05 15° SE visible
18 Apr 3.5 22:53:35 10° WSW 22:53:41 11° SW 22:53:41 11° SW visible
19 Apr 2.3 21:06:06 10° SW 21:09:24 22° S 21:12:06 13° SE visible
19 Apr 3.3 22:47:09 10° WSW 22:47:42 13° SW 22:47:42 13° SW visible
20 Apr 2.3 20:59:30 10° SW 21:02:50 23° S 21:06:04 11° SE visible
20 Apr 3.2 22:40:46 10° WSW 22:41:39 14° SW 22:41:39 14° SW visible
21 Apr 2.3 20:52:56 10° SW 20:56:17 23° S 20:59:38 10° SE visible
21 Apr 3.1 22:34:29 10° SW 22:35:34 14° SW 22:35:34 14° SW visible
22 Apr 2.4 20:46:25 10° WSW 20:49:43 23° S 20:53:02 10° SE visible
22 Apr 3.2 22:28:20 10° SW 22:29:28 13° SW 22:29:28 13° SW visible
23 Apr 3.2 22:22:29 10° SW 22:23:20 11° SSW 22:23:20 11° SSW visible
